GLO1651 SBVT-SBSP

Flight info

Callsign GLO1651
Flight time 1h 17m
Altitude 36000
Route MABSI UZ44 ADA UZ45 IBDAL
Aircraft B38M/M-SDE1FGHILORVWXY/HB1

Departure

Time 2026-04-26 15:36
Airport Eurico de Aguiar Salles International Airport (SBVT)

Arrival

Time 2026-04-26 16:53
Airport Congonhas–Deputado Freitas Nobre Airport (SBSP)
Time Latitude Longitude Altitude Speed Heading
2026-04-26 15:34 -20.26701 -40.27951 20 ft 0 kts 49°
2026-04-26 15:34 -20.26700 -40.27951 20 ft 0 kts 46°
2026-04-26 15:34 -20.26697 -40.27947 20 ft 2 kts 41°
2026-04-26 15:34 -20.26679 -40.27933 20 ft 4 kts 27°
2026-04-26 15:35 -20.26644 -40.27917 20 ft 7 kts 19°
2026-04-26 15:35 -20.26593 -40.27884 20 ft 10 kts 49°
2026-04-26 15:35 -20.26528 -40.27861 19 ft 14 kts 358°
2026-04-26 15:35 -20.26357 -40.27883 20 ft 48 kts 352°
2026-04-26 15:36 -20.25739 -40.27974 26 ft 131 kts 353°
2026-04-26 15:36 -20.24659 -40.28156 379 ft 166 kts 351°
2026-04-26 15:36 -20.23455 -40.28311 1032 ft 188 kts 359°
2026-04-26 15:36 -20.22081 -40.28033 1667 ft 210 kts 24°
2026-04-26 15:37 -20.20941 -40.27054 2691 ft 217 kts 47°
2026-04-26 15:37 -20.19861 -40.25859 3617 ft 227 kts 44°
2026-04-26 15:37 -20.18723 -40.24676 4690 ft 231 kts 44°
2026-04-26 15:37 -20.17538 -40.23477 5683 ft 237 kts 44°
2026-04-26 15:38 -20.16403 -40.22194 6558 ft 248 kts 57°
2026-04-26 15:38 -20.15811 -40.20430 7195 ft 263 kts 91°
2026-04-26 15:38 -20.16266 -40.18528 7915 ft 275 kts 122°
2026-04-26 15:38 -20.17635 -40.17114 8825 ft 277 kts 154°
2026-04-26 15:39 -20.19505 -40.16669 9885 ft 281 kts 179°
2026-04-26 15:39 -20.21495 -40.16625 10570 ft 295 kts 173°
2026-04-26 15:39 -20.23601 -40.16392 11127 ft 312 kts 174°
2026-04-26 15:39 -20.25056 -40.16242 11505 ft 322 kts 174°
2026-04-26 15:40 -20.28050 -40.15963 12679 ft 326 kts 175°
2026-04-26 15:40 -20.30334 -40.15768 13447 ft 332 kts 176°
2026-04-26 15:40 -20.32655 -40.15577 14169 ft 337 kts 176°
2026-04-26 15:40 -20.35008 -40.15388 14869 ft 341 kts 177°
2026-04-26 15:41 -20.37395 -40.15197 15559 ft 345 kts 177°
2026-04-26 15:41 -20.39810 -40.15007 16237 ft 350 kts 177°
2026-04-26 15:41 -20.42230 -40.14870 16884 ft 354 kts 181°
2026-04-26 15:41 -20.44710 -40.14848 17525 ft 358 kts 181°
2026-04-26 15:42 -20.47218 -40.14814 18167 ft 363 kts 181°
2026-04-26 15:42 -20.49758 -40.14774 18720 ft 367 kts 181°
2026-04-26 15:42 -20.52320 -40.14762 19275 ft 369 kts 186°
2026-04-26 15:42 -20.54810 -40.15368 19816 ft 367 kts 205°
2026-04-26 15:43 -20.56973 -40.16784 20322 ft 367 kts 223°
2026-04-26 15:43 -20.58781 -40.18722 20824 ft 370 kts 228°
2026-04-26 15:43 -20.62278 -40.22783 21836 ft 377 kts 229°
2026-04-26 15:44 -20.64034 -40.24883 22348 ft 380 kts 230°
2026-04-26 15:44 -20.67555 -40.29144 23346 ft 386 kts 230°
2026-04-26 15:44 -20.69334 -40.31309 23797 ft 389 kts 230°
2026-04-26 15:45 -20.72923 -40.35683 24684 ft 393 kts 230°
2026-04-26 15:45 -20.74731 -40.37887 25102 ft 395 kts 230°
2026-04-26 15:46 -20.78351 -40.42306 25969 ft 399 kts 230°
2026-04-26 15:46 -20.80184 -40.44544 26399 ft 401 kts 230°
2026-04-26 15:46 -20.82035 -40.46805 26827 ft 404 kts 230°
2026-04-26 15:46 -20.83284 -40.48332 27121 ft 405 kts 230°
2026-04-26 15:47 -20.85753 -40.51350 27677 ft 408 kts 230°
2026-04-26 15:47 -20.89514 -40.55946 28471 ft 412 kts 229°
2026-04-26 15:47 -20.91664 -40.57985 28864 ft 415 kts 217°
2026-04-26 15:48 -20.93950 -40.59824 29238 ft 418 kts 219°
2026-04-26 15:48 -20.96263 -40.61729 29602 ft 420 kts 219°
2026-04-26 15:48 -20.98592 -40.63638 29997 ft 422 kts 219°
2026-04-26 15:48 -21.00935 -40.65557 30312 ft 425 kts 219°
2026-04-26 15:49 -21.03283 -40.67481 30620 ft 427 kts 219°
2026-04-26 15:49 -21.05653 -40.69422 30955 ft 428 kts 219°
2026-04-26 15:49 -21.08023 -40.71364 31236 ft 431 kts 219°
2026-04-26 15:49 -21.10414 -40.73325 31528 ft 434 kts 219°
2026-04-26 15:50 -21.12786 -40.75270 31832 ft 436 kts 219°
2026-04-26 15:50 -21.15202 -40.77255 32140 ft 438 kts 219°
2026-04-26 15:50 -21.17629 -40.79249 32432 ft 440 kts 219°
2026-04-26 15:50 -21.20069 -40.81254 32719 ft 442 kts 219°
2026-04-26 15:51 -21.22515 -40.83265 33007 ft 444 kts 219°
2026-04-26 15:51 -21.24979 -40.85292 33319 ft 446 kts 219°
2026-04-26 15:51 -21.27446 -40.87323 33621 ft 448 kts 219°
2026-04-26 15:51 -21.29889 -40.89334 33913 ft 449 kts 219°
2026-04-26 15:52 -21.32369 -40.91377 34249 ft 448 kts 220°
2026-04-26 15:52 -21.34843 -40.93416 34577 ft 448 kts 220°
2026-04-26 15:52 -21.37320 -40.95457 34913 ft 447 kts 220°
2026-04-26 15:52 -21.38961 -40.96809 35150 ft 446 kts 220°
2026-04-26 15:53 -21.42220 -40.99495 35615 ft 445 kts 220°
2026-04-26 15:53 -21.44673 -41.01518 35973 ft 443 kts 220°
2026-04-26 15:53 -21.47116 -41.03534 36327 ft 441 kts 220°
2026-04-26 15:53 -21.49546 -41.05539 36674 ft 440 kts 220°
2026-04-26 15:54 -21.51969 -41.07540 36999 ft 438 kts 220°
2026-04-26 15:54 -21.54386 -41.09537 37308 ft 437 kts 221°
2026-04-26 15:54 -21.56798 -41.11530 37621 ft 435 kts 221°
2026-04-26 15:54 -21.59198 -41.13514 37888 ft 435 kts 221°
2026-04-26 15:55 -21.61597 -41.15499 37952 ft 434 kts 221°
2026-04-26 15:55 -21.66319 -41.19407 37930 ft 429 kts 221°
2026-04-26 15:56 -21.71040 -41.23317 37924 ft 429 kts 221°
2026-04-26 15:56 -21.75749 -41.27265 37939 ft 429 kts 221°
2026-04-26 15:57 -21.80452 -41.31223 37922 ft 429 kts 221°
2026-04-26 15:57 -21.85149 -41.35177 37918 ft 428 kts 222°
2026-04-26 15:58 -21.89847 -41.39135 37924 ft 429 kts 222°
2026-04-26 15:58 -21.94548 -41.43100 37920 ft 429 kts 222°
2026-04-26 15:59 -21.99227 -41.47049 37919 ft 429 kts 222°
2026-04-26 15:59 -22.03925 -41.51018 37921 ft 429 kts 222°
2026-04-26 16:00 -22.08622 -41.54992 37921 ft 429 kts 222°
2026-04-26 16:00 -22.13287 -41.58942 37923 ft 428 kts 222°
2026-04-26 16:01 -22.17985 -41.62923 37916 ft 428 kts 222°
2026-04-26 16:01 -22.22676 -41.66903 37925 ft 428 kts 222°
2026-04-26 16:02 -22.27356 -41.70876 37910 ft 427 kts 222°
2026-04-26 16:02 -22.32013 -41.74832 37912 ft 427 kts 222°
2026-04-26 16:03 -22.36870 -41.78535 37920 ft 430 kts 217°
2026-04-26 16:03 -22.41904 -41.82001 37926 ft 431 kts 217°
2026-04-26 16:04 -22.46959 -41.85465 37911 ft 429 kts 217°
2026-04-26 16:04 -22.52015 -41.88931 37925 ft 430 kts 217°
2026-04-26 16:05 -22.57073 -41.92401 37918 ft 430 kts 217°
2026-04-26 16:05 -22.62096 -41.95851 37923 ft 430 kts 217°
2026-04-26 16:06 -22.67140 -41.99344 37908 ft 428 kts 218°
2026-04-26 16:06 -22.72120 -42.02935 37913 ft 430 kts 218°
2026-04-26 16:07 -22.77066 -42.06492 37912 ft 430 kts 218°
2026-04-26 16:07 -22.81365 -42.10780 37915 ft 413 kts 243°
2026-04-26 16:08 -22.84047 -42.16296 37892 ft 413 kts 246°
2026-04-26 16:08 -22.86524 -42.21887 37910 ft 413 kts 248°
2026-04-26 16:09 -22.88956 -42.27549 37917 ft 414 kts 248°
2026-04-26 16:09 -22.91375 -42.33229 37918 ft 414 kts 248°
2026-04-26 16:10 -22.93771 -42.38868 37918 ft 414 kts 248°
2026-04-26 16:10 -22.96181 -42.44548 37921 ft 413 kts 248°
2026-04-26 16:11 -22.98585 -42.50220 37917 ft 413 kts 248°
2026-04-26 16:11 -23.00989 -42.55900 37916 ft 413 kts 248°
2026-04-26 16:12 -23.03388 -42.61573 37913 ft 413 kts 248°
2026-04-26 16:12 -23.06977 -42.70074 37914 ft 415 kts 248°
2026-04-26 16:13 -23.09377 -42.75767 37915 ft 413 kts 249°
2026-04-26 16:13 -23.11767 -42.81444 37917 ft 413 kts 249°
2026-04-26 16:14 -23.14154 -42.87121 37913 ft 413 kts 249°
2026-04-26 16:15 -23.17740 -42.95659 37918 ft 413 kts 249°
2026-04-26 16:15 -23.20108 -43.01307 37915 ft 413 kts 249°
2026-04-26 16:16 -23.23679 -43.09839 37909 ft 412 kts 249°
2026-04-26 16:16 -23.26052 -43.15516 37911 ft 412 kts 249°
2026-04-26 16:17 -23.28410 -43.21161 37911 ft 412 kts 249°
2026-04-26 16:17 -23.30754 -43.26857 37907 ft 410 kts 253°
2026-04-26 16:18 -23.32932 -43.35815 37908 ft 408 kts 258°
2026-04-26 16:19 -23.34806 -43.43756 37902 ft 405 kts 258°
2026-04-26 16:20 -23.37131 -43.53669 37908 ft 407 kts 258°
2026-04-26 16:20 -23.38994 -43.61629 37908 ft 407 kts 258°
2026-04-26 16:21 -23.40391 -43.67613 37903 ft 407 kts 258°
2026-04-26 16:21 -23.41785 -43.73598 37907 ft 408 kts 258°
2026-04-26 16:22 -23.43170 -43.79553 37918 ft 407 kts 259°
2026-04-26 16:22 -23.44555 -43.85514 37899 ft 405 kts 259°
2026-04-26 16:23 -23.45936 -43.91474 37904 ft 406 kts 259°
2026-04-26 16:23 -23.47315 -43.97439 37903 ft 406 kts 259°
2026-04-26 16:24 -23.48684 -44.03367 37897 ft 406 kts 259°
2026-04-26 16:24 -23.50062 -44.09345 37899 ft 407 kts 259°
2026-04-26 16:25 -23.51439 -44.15328 37900 ft 407 kts 259°
2026-04-26 16:25 -23.52814 -44.21315 37900 ft 407 kts 259°
2026-04-26 16:26 -23.54180 -44.27271 37902 ft 407 kts 259°
2026-04-26 16:26 -23.55552 -44.33266 37900 ft 407 kts 259°
2026-04-26 16:27 -23.56924 -44.39270 37897 ft 407 kts 259°
2026-04-26 16:27 -23.58292 -44.45270 37895 ft 408 kts 259°
2026-04-26 16:28 -23.59653 -44.51249 37899 ft 408 kts 259°
2026-04-26 16:28 -23.61008 -44.57212 37180 ft 403 kts 259°
2026-04-26 16:29 -23.61685 -44.60192 36378 ft 407 kts 259°
2026-04-26 16:29 -23.62366 -44.63199 35629 ft 409 kts 258°
2026-04-26 16:29 -23.63048 -44.66208 34924 ft 410 kts 258°
2026-04-26 16:29 -23.63734 -44.69239 34208 ft 412 kts 258°
2026-04-26 16:30 -23.64420 -44.72277 33391 ft 414 kts 258°
2026-04-26 16:30 -23.65112 -44.75344 32561 ft 417 kts 258°
2026-04-26 16:30 -23.65807 -44.78423 31777 ft 418 kts 258°
2026-04-26 16:30 -23.66502 -44.81507 30998 ft 419 kts 258°
2026-04-26 16:31 -23.67190 -44.84565 30219 ft 421 kts 258°
2026-04-26 16:31 -23.67889 -44.87671 29527 ft 419 kts 258°
2026-04-26 16:31 -23.68578 -44.90742 28902 ft 414 kts 258°
2026-04-26 16:31 -23.69261 -44.93784 28299 ft 410 kts 258°
2026-04-26 16:32 -23.69937 -44.96798 27728 ft 407 kts 258°
2026-04-26 16:32 -23.70382 -44.98783 27328 ft 405 kts 258°
2026-04-26 16:32 -23.71273 -45.02762 26538 ft 401 kts 258°
2026-04-26 16:32 -23.71932 -45.05714 25952 ft 399 kts 258°
2026-04-26 16:33 -23.72582 -45.08620 25380 ft 398 kts 258°
2026-04-26 16:33 -23.73236 -45.11553 24798 ft 396 kts 258°
2026-04-26 16:33 -23.73888 -45.14474 24224 ft 395 kts 258°
2026-04-26 16:33 -23.74536 -45.17384 23649 ft 395 kts 258°
2026-04-26 16:34 -23.75186 -45.20300 22997 ft 395 kts 258°
2026-04-26 16:34 -23.75832 -45.23211 22360 ft 393 kts 258°
2026-04-26 16:34 -23.76474 -45.26115 21690 ft 393 kts 258°
2026-04-26 16:34 -23.77112 -45.29003 21168 ft 390 kts 258°
2026-04-26 16:35 -23.77747 -45.31877 20584 ft 389 kts 258°
2026-04-26 16:35 -23.78380 -45.34745 20041 ft 387 kts 258°
2026-04-26 16:35 -23.79002 -45.37566 19477 ft 387 kts 257°
2026-04-26 16:35 -23.79619 -45.40421 18967 ft 384 kts 260°
2026-04-26 16:36 -23.79852 -45.43300 18606 ft 377 kts 267°
2026-04-26 16:36 -23.79997 -45.46138 18288 ft 371 kts 267°
2026-04-26 16:36 -23.80144 -45.48964 17940 ft 373 kts 267°
2026-04-26 16:36 -23.80290 -45.51793 17625 ft 373 kts 267°
2026-04-26 16:37 -23.80436 -45.54618 17327 ft 371 kts 267°
2026-04-26 16:37 -23.80580 -45.57424 17024 ft 369 kts 267°
2026-04-26 16:37 -23.80724 -45.60221 16730 ft 367 kts 267°
2026-04-26 16:37 -23.80818 -45.62055 16525 ft 365 kts 267°
2026-04-26 16:38 -23.81004 -45.65718 16138 ft 363 kts 267°
2026-04-26 16:38 -23.81144 -45.68465 15842 ft 361 kts 267°
2026-04-26 16:38 -23.81282 -45.71206 15545 ft 360 kts 267°
2026-04-26 16:38 -23.81419 -45.73933 15249 ft 358 kts 267°
2026-04-26 16:39 -23.81555 -45.76642 14952 ft 356 kts 267°
2026-04-26 16:39 -23.81690 -45.79337 14663 ft 355 kts 267°
2026-04-26 16:39 -23.81825 -45.82030 14365 ft 354 kts 267°
2026-04-26 16:39 -23.81957 -45.84706 14087 ft 353 kts 267°
2026-04-26 16:40 -23.82090 -45.87381 13797 ft 351 kts 267°
2026-04-26 16:40 -23.82221 -45.90035 13484 ft 350 kts 267°
2026-04-26 16:40 -23.82351 -45.92685 13176 ft 348 kts 267°
2026-04-26 16:40 -23.82480 -45.95317 12885 ft 346 kts 267°
2026-04-26 16:41 -23.82606 -45.97910 12601 ft 338 kts 267°
2026-04-26 16:41 -23.82728 -46.00418 12329 ft 331 kts 268°
2026-04-26 16:41 -23.82849 -46.02910 12056 ft 324 kts 268°
2026-04-26 16:41 -23.82966 -46.05344 11796 ft 318 kts 268°
2026-04-26 16:42 -23.83082 -46.07725 11544 ft 311 kts 268°
2026-04-26 16:42 -23.83194 -46.10068 11293 ft 305 kts 268°
2026-04-26 16:42 -23.83304 -46.12366 11051 ft 300 kts 268°
2026-04-26 16:42 -23.83411 -46.14617 10800 ft 295 kts 268°
2026-04-26 16:43 -23.83519 -46.16844 10559 ft 290 kts 268°
2026-04-26 16:43 -23.83622 -46.19025 10314 ft 285 kts 268°
2026-04-26 16:43 -23.83747 -46.21168 10066 ft 280 kts 267°
2026-04-26 16:43 -23.83895 -46.23242 9839 ft 275 kts 266°
2026-04-26 16:44 -23.84042 -46.25307 9635 ft 270 kts 267°
2026-04-26 16:44 -23.84183 -46.27337 9381 ft 267 kts 268°
2026-04-26 16:44 -23.84322 -46.29342 9148 ft 262 kts 268°
2026-04-26 16:44 -23.84458 -46.31318 8956 ft 261 kts 267°
2026-04-26 16:45 -23.84595 -46.33300 8715 ft 262 kts 267°
2026-04-26 16:45 -23.84730 -46.35280 8539 ft 260 kts 267°
2026-04-26 16:45 -23.84865 -46.37256 8287 ft 260 kts 268°
2026-04-26 16:45 -23.85001 -46.39217 8057 ft 257 kts 268°
2026-04-26 16:46 -23.85132 -46.41140 7891 ft 250 kts 268°
2026-04-26 16:46 -23.85260 -46.43013 7625 ft 244 kts 268°
2026-04-26 16:46 -23.85289 -46.44788 7345 ft 229 kts 283°
2026-04-26 16:46 -23.84625 -46.46299 7226 ft 217 kts 306°
2026-04-26 16:47 -23.83761 -46.47608 7112 ft 208 kts 306°
2026-04-26 16:47 -23.82934 -46.48852 6995 ft 195 kts 306°
2026-04-26 16:47 -23.82156 -46.50013 6827 ft 184 kts 306°
2026-04-26 16:47 -23.81419 -46.51105 6667 ft 173 kts 306°
2026-04-26 16:48 -23.80708 -46.52118 6503 ft 165 kts 310°
2026-04-26 16:48 -23.79909 -46.53029 6392 ft 165 kts 315°
2026-04-26 16:48 -23.79051 -46.53867 6264 ft 165 kts 319°
2026-04-26 16:48 -23.78163 -46.54638 6050 ft 165 kts 321°
2026-04-26 16:49 -23.77236 -46.55387 5790 ft 166 kts 322°
2026-04-26 16:49 -23.76288 -46.56110 5551 ft 162 kts 324°
2026-04-26 16:49 -23.75386 -46.56775 5369 ft 153 kts 323°
2026-04-26 16:49 -23.74495 -46.57397 5294 ft 152 kts 324°
2026-04-26 16:50 -23.73614 -46.58026 5308 ft 151 kts 324°
2026-04-26 16:50 -23.72747 -46.58636 5293 ft 146 kts 324°
2026-04-26 16:50 -23.71898 -46.59228 4939 ft 142 kts 324°
2026-04-26 16:50 -23.71075 -46.59777 4739 ft 138 kts 324°
2026-04-26 16:51 -23.70267 -46.60344 4382 ft 139 kts 324°
2026-04-26 16:51 -23.69452 -46.60884 4105 ft 133 kts 325°
2026-04-26 16:51 -23.68674 -46.61432 3927 ft 132 kts 324°
2026-04-26 16:51 -23.67917 -46.61977 3653 ft 127 kts 321°
2026-04-26 16:52 -23.67170 -46.62519 3590 ft 136 kts 323°
2026-04-26 16:52 -23.66638 -46.62899 3452 ft 136 kts 323°
2026-04-26 16:52 -23.65597 -46.63626 3198 ft 134 kts 325°
2026-04-26 16:52 -23.64794 -46.64183 3065 ft 143 kts 326°
2026-04-26 16:53 -23.63936 -46.64774 2842 ft 146 kts 327°
2026-04-26 16:53 -23.63112 -46.65342 2647 ft 129 kts 327°
2026-04-26 16:53 -23.62626 -46.65676 2619 ft 40 kts 328°
2026-04-26 16:53 -23.62425 -46.65814 2615 ft 29 kts 328°
2026-04-26 16:54 -23.62284 -46.65910 2608 ft 18 kts 327°
2026-04-26 16:54 -23.62196 -46.65995 2605 ft 13 kts 281°
2026-04-26 16:54 -23.62204 -46.66022 2605 ft 2 kts 231°
2026-04-26 16:54 -23.62218 -46.66041 2605 ft 4 kts 230°
2026-04-26 16:55 -23.62243 -46.66046 2606 ft 3 kts 167°
2026-04-26 16:55 -23.62260 -46.66036 2607 ft 3 kts 147°
2026-04-26 16:55 -23.62275 -46.66025 2607 ft 3 kts 147°
2026-04-26 16:55 -23.62292 -46.66013 2608 ft 3 kts 147°
2026-04-26 16:56 -23.62337 -46.65982 2609 ft 5 kts 147°
2026-04-26 16:56 -23.62372 -46.65958 2610 ft 6 kts 149°
2026-04-26 16:56 -23.62415 -46.65929 2612 ft 8 kts 147°
2026-04-26 16:57 -23.62460 -46.65897 2614 ft 8 kts 147°
2026-04-26 16:57 -23.62503 -46.65867 2615 ft 7 kts 147°
2026-04-26 16:57 -23.62552 -46.65834 2617 ft 3 kts 147°
2026-04-26 16:58 -23.62568 -46.65823 2618 ft 3 kts 147°
2026-04-26 16:58 -23.62574 -46.65818 2618 ft 4 kts 147°
2026-04-26 16:58 -23.62671 -46.65751 2621 ft 5 kts 148°
2026-04-26 16:59 -23.62690 -46.65739 2622 ft 0 kts 158°
2026-04-26 17:00 -23.62731 -46.65760 2623 ft 7 kts 240°
2026-04-26 17:00 -23.62750 -46.65794 2623 ft 0 kts 237°
2026-04-26 17:00 -23.62752 -46.65798 2623 ft 1 kts 237°
2026-04-26 17:01 -23.62753 -46.65800 2623 ft 0 kts 238°